TimeCST,TemperatureF,Dew PointF,Humidity,Sea Level PressureIn,VisibilityMPH,Wind Direction,Wind SpeedMPH,Gust SpeedMPH,PrecipitationIn,Events,Conditions,WindDirDegrees,DateUTC
12:11 AM,35.6,32.0,87,29.92,7.0,North,6.9,-,0.01,Rain,Light Freezing Rain,360,2013-02-13 06:11:00
12:28 AM,35.6,32.0,87,29.93,5.0,North,4.6,-,0.02,Snow,Light Snow,360,2013-02-13 06:28:00
12:45 AM,33.8,32.0,93,29.93,2.5,NNE,5.8,-,0.03,Snow,Light Snow,20,2013-02-13 06:45:00
12:53 AM,33.1,30.9,92,29.94,2.0,NNE,6.9,-,0.04,Snow,Light Snow,20,2013-02-13 06:53:00
1:15 AM,33.8,30.2,87,29.92,3.0,NNE,4.6,-,0.01,Snow,Light Snow,20,2013-02-13 07:15:00
1:40 AM,33.8,30.2,87,29.91,4.0,NNE,6.9,-,0.02,Snow,Light Snow,20,2013-02-13 07:40:00
1:53 AM,33.1,32.0,96,29.92,4.0,NNE,6.9,-,0.02,Snow,Light Snow,20,2013-02-13 07:53:00
2:10 AM,33.8,30.2,87,29.91,2.5,NNE,5.8,-,0.01,Snow,Light Snow,20,2013-02-13 08:10:00
2:20 AM,33.8,30.2,87,29.90,3.0,NNE,6.9,-,0.01,Snow,Light Snow,20,2013-02-13 08:20:00
2:31 AM,33.8,30.2,87,29.90,2.5,NNE,5.8,-,0.02,Snow,Light Snow,30,2013-02-13 08:31:00
2:53 AM,33.1,30.9,92,29.90,2.5,NNE,6.9,-,0.02,Snow,Light Snow,30,2013-02-13 08:53:00
3:06 AM,33.8,30.2,87,29.88,3.0,NNE,8.1,-,0.01,Snow,Light Snow,20,2013-02-13 09:06:00
3:53 AM,33.1,30.9,92,29.90,7.0,North,4.6,-,0.02,,Overcast,360,2013-02-13 09:53:00
4:32 AM,33.8,32.0,93,29.88,6.0,NNW,3.5,-,0.00,Snow,Light Snow,330,2013-02-13 10:32:00
4:53 AM,33.1,30.9,92,29.91,5.0,NW,5.8,-,0.01,Snow,Light Snow,310,2013-02-13 10:53:00
5:16 AM,33.8,30.2,87,29.90,3.0,NW,5.8,-,0.00,Snow,Light Snow,310,2013-02-13 11:16:00
5:36 AM,33.8,30.2,87,29.90,5.0,WNW,3.5,-,0.01,,Overcast,300,2013-02-13 11:36:00
5:50 AM,33.8,30.2,87,29.90,9.0,WNW,4.6,-,0.01,,Overcast,290,2013-02-13 11:50:00
5:53 AM,33.1,30.9,92,29.92,10.0,WNW,4.6,-,0.01,,Overcast,290,2013-02-13 11:53:00
6:10 AM,33.8,30.2,87,29.91,8.0,WNW,4.6,-,0.00,Snow,Light Snow,290,2013-02-13 12:10:00
6:24 AM,33.8,30.2,87,29.91,4.0,West,3.5,-,0.00,Snow,Light Snow,280,2013-02-13 12:24:00
6:31 AM,33.8,30.2,87,29.91,4.0,Calm,Calm,-,0.00,Snow,Light Snow,0,2013-02-13 12:31:00
6:53 AM,33.1,30.9,92,29.94,8.0,West,3.5,-,0.00,,Overcast,270,2013-02-13 12:53:00
7:53 AM,33.1,30.9,92,29.97,5.0,WNW,8.1,-,0.01,Snow,Light Snow,300,2013-02-13 13:53:00
8:25 AM,33.8,32.0,93,29.95,10.0,Calm,Calm,-,0.00,,Overcast,0,2013-02-13 14:25:00
8:53 AM,34.0,32.0,92,29.98,10.0,West,4.6,-,0.00,,Overcast,260,2013-02-13 14:53:00
9:00 AM,33.8,32.0,93,29.96,10.0,West,4.6,-,N/A,,Overcast,270,2013-02-13 15:00:00
9:14 AM,33.8,32.0,93,29.96,10.0,West,4.6,-,N/A,,Overcast,260,2013-02-13 15:14:00
9:48 AM,35.6,33.8,93,29.96,10.0,West,6.9,-,N/A,,Mostly Cloudy,270,2013-02-13 15:48:00
9:53 AM,36.0,33.1,89,29.98,10.0,West,9.2,-,N/A,,Scattered Clouds,260,2013-02-13 15:53:00
10:53 AM,42.1,35.1,76,29.97,10.0,WSW,10.4,-,N/A,,Partly Cloudy,250,2013-02-13 16:53:00
11:53 AM,44.1,34.0,68,29.96,10.0,West,11.5,-,N/A,,Partly Cloudy,270,2013-02-13 17:53:00
12:53 PM,46.0,33.1,61,29.93,10.0,WSW,11.5,17.3,N/A,,Partly Cloudy,240,2013-02-13 18:53:00
1:53 PM,48.9,30.9,50,29.92,10.0,WSW,12.7,23.0,N/A,,Clear,250,2013-02-13 19:53:00
2:53 PM,50.0,28.9,44,29.90,10.0,SW,11.5,-,N/A,,Scattered Clouds,230,2013-02-13 20:53:00
3:53 PM,51.1,26.1,38,29.91,10.0,WNW,15.0,-,N/A,,Clear,300,2013-02-13 21:53:00
4:53 PM,48.0,27.0,44,29.90,10.0,West,10.4,-,N/A,,Clear,270,2013-02-13 22:53:00
5:53 PM,43.0,27.0,53,29.92,10.0,WSW,4.6,-,N/A,,Clear,250,2013-02-13 23:53:00
6:53 PM,39.9,27.0,60,29.93,10.0,WSW,4.6,-,N/A,,Clear,250,2013-02-14 00:53:00
7:53 PM,37.9,28.0,68,29.93,10.0,WSW,4.6,-,N/A,,Clear,240,2013-02-14 01:53:00
8:53 PM,37.9,28.0,68,29.94,8.0,WSW,4.6,-,N/A,,Clear,250,2013-02-14 02:53:00
9:53 PM,37.0,28.0,70,29.94,10.0,SW,4.6,-,N/A,,Clear,230,2013-02-14 03:53:00
10:53 PM,36.0,28.0,73,29.95,10.0,SW,5.8,-,N/A,,Clear,230,2013-02-14 04:53:00
11:53 PM,37.0,28.0,70,29.94,10.0,SW,6.9,-,N/A,,Clear,220,2013-02-14 05:53:00